M I D A S
Marine Information and Data Acquisition System
Tripno 1810 of the Zeeleeuw from 2009-11-19 08:28:57 to 2009-11-19 13:29:36
Back to CruiseResearch ActivitiesStationsMapUnderway DataData graphs

EquipmentUnitsComments
TimeDGPSUTC
LatitudeDGPSDM.mWGS84
LongitudeDGPSDM.mWGS84
SpeedMeteo Stationm/sRelative wind speed
DirectionMeteo StationdegRelative wind direction
TemperatureMeteo Stationdeg CelciusAir temperature
PressureMeteo StationPaAtmospheric pressure
HumidityMeteo Station%Relative humidity
Missing or incorrect values are displayed as -999
Metereological data collected by the RV Zeeleeuw from 2009-11-19 08:31:40 to 2009-11-19 13:47:33
Time Latitude Longitude Speed Direction Temperature Pressure Humidity
2009-11-19 08:32 51°13.681 2°55.881 3.3 21 9.1 101720 39
2009-11-19 08:33 51°13.694 2°55.792 4.3 15 9.1 101720 42
2009-11-19 08:34 51°13.7 2°55.758 5.3 44 9.1 101710 41
2009-11-19 08:35 51°13.693 2°55.742 3.3 26 9.1 101720 45
2009-11-19 08:36 51°13.735 2°55.711 1 15 9.1 101730 45
2009-11-19 08:37 51°13.829 2°55.633 5.4 26 9.1 101710 42
2009-11-19 08:38 51°13.95 2°55.542 2.3 270 9.1 101710 45
2009-11-19 08:39 51°14.078 2°55.448 0.1 263 9.2 101710 44
2009-11-19 08:40 51°14.199 2°55.338 4.8 251 9.2 101710 38
2009-11-19 08:41 51°14.299 2°55.176 5.3 25 9.2 101690 44
2009-11-19 08:42 51°14.407 2°54.983 9.1 246 9.2 101690 43
2009-11-19 08:43 51°14.554 2°54.823 6.2 260 9.3 101720 39
2009-11-19 08:44 51°14.715 2°54.696 5.6 263 9.3 101720 44
2009-11-19 08:45 51°14.879 2°54.574 5 262 9.3 101710 39
2009-11-19 08:46 51°15.042 2°54.452 6.7 269 9.3 101720 45
2009-11-19 08:47 51°15.204 2°54.329 5.9 265 9.3 101720 45
2009-11-19 08:48 51°15.362 2°54.203 6.2 263 9.3 101730 45
2009-11-19 08:49 51°15.519 2°54.076 6.4 269 9.3 101720 41
2009-11-19 08:50 51°15.676 2°53.944 7.2 270 9.4 101710 42
2009-11-19 08:51 51°15.834 2°53.813 7.4 263 9.4 101710 43
2009-11-19 08:52 51°15.997 2°53.685 7.8 260 9.4 101730 43
2009-11-19 08:53 51°16.155 2°53.555 5.5 264 9.5 101710 45
2009-11-19 08:54 51°16.314 2°53.426 5.8 262 9.5 101710 46
2009-11-19 08:55 51°16.467 2°53.284 9.5 259 9.5 101720 44
2009-11-19 08:56 51°16.625 2°53.145 8 261 9.6 101710 39
2009-11-19 08:57 51°16.778 2°53.005 5 264 9.6 101720 44
2009-11-19 08:58 51°16.924 2°52.862 5.4 267 9.7 101720 44
2009-11-19 08:59 51°17.069 2°52.715 7.1 262 9.7 101730 40
2009-11-19 09:00 51°17.214 2°52.569 6.1 265 9.7 101730 42
2009-11-19 09:01 51°17.357 2°52.424 6.8 262 9.7 101720 43
2009-11-19 09:02 51°17.499 2°52.278 5.5 264 9.7 101730 42
2009-11-19 09:03 51°17.642 2°52.13 9.3 261 9.7 101730 43
2009-11-19 09:04 51°17.787 2°51.982 11.6 257 9.7 101730 39
2009-11-19 09:05 51°17.928 2°51.838 7.2 262 9.7 101740 40
2009-11-19 09:06 51°18.07 2°51.689 6.8 259 9.7 101730 39
2009-11-19 09:07 51°18.217 2°51.541 8.6 263 9.9 101720 42
2009-11-19 09:08 51°18.363 2°51.395 7.7 261 9.9 101720 43
2009-11-19 09:09 51°18.506 2°51.243 8.7 261 9.9 101730 45
2009-11-19 09:10 51°18.65 2°51.091 10.5 260 9.9 101720 43
2009-11-19 09:11 51°18.798 2°50.938 6.9 262 9.9 101700 40
2009-11-19 09:12 51°18.942 2°50.787 7 262 9.9 101710 44
2009-11-19 09:13 51°19.083 2°50.636 8.8 260 9.9 101720 42
2009-11-19 09:14 51°19.228 2°50.488 7 264 10 101730 44
2009-11-19 09:15 51°19.374 2°50.34 10.1 258 10 101710 41
2009-11-19 09:16 51°19.524 2°50.19 10.5 260 10 101710 45
2009-11-19 09:17 51°19.673 2°50.038 9.1 260 9.9 101700 40
2009-11-19 09:18 51°19.821 2°49.891 7.6 262 10 101710 45
2009-11-19 09:19 51°19.967 2°49.739 11.5 257 10 101720 40
2009-11-19 09:20 51°20.115 2°49.589 13.1 256 10.1 101710 40
2009-11-19 09:21 51°20.26 2°49.431 11 262 10 101690 42
2009-11-19 09:22 51°20.404 2°49.278 12.3 258 10 101690 41
2009-11-19 09:23 51°20.553 2°49.127 9.6 262 10.1 101700 44
2009-11-19 09:24 51°20.707 2°48.993 6.6 263 10.1 101710 40
2009-11-19 09:25 51°20.87 2°48.9 10.3 270 10.1 101710 40
2009-11-19 09:26 51°21.035 2°48.811 5.7 267 10 101700 45
2009-11-19 09:27 51°21.196 2°48.722 9.2 324 10.2 101690 42
2009-11-19 09:28 51°21.362 2°48.634 7.2 269 10.2 101710 42
2009-11-19 09:29 51°21.531 2°48.543 6.6 270 10.2 101710 40
2009-11-19 09:30 51°21.699 2°48.455 6.4 268 10.2 101690 43
2009-11-19 09:31 51°21.863 2°48.354 9.3 263 10.2 101700 40
2009-11-19 09:32 51°22.019 2°48.213 8.1 263 10.2 101700 40
2009-11-19 09:33 51°22.175 2°48.071 8.5 264 10.3 101660 44
2009-11-19 09:34 51°22.324 2°47.924 10.9 261 10.2 101700 41
2009-11-19 09:35 51°22.471 2°47.768 10.5 258 10.3 101700 40
2009-11-19 09:36 51°22.617 2°47.615 11.8 261 10.4 101690 45
2009-11-19 09:37 51°22.762 2°47.458 8.6 263 10.3 101680 41
2009-11-19 09:38 51°22.91 2°47.303 8.9 262 10.3 101670 45
2009-11-19 09:39 51°23.057 2°47.148 12 258 10.3 101670 44
2009-11-19 09:40 51°23.202 2°46.995 11.4 261 10.3 101690 40
2009-11-19 09:41 51°23.348 2°46.839 6.7 261 10.4 101680 39
2009-11-19 09:42 51°23.495 2°46.688 7.2 262 10.4 101690 41
2009-11-19 09:43 51°23.641 2°46.538 11.1 257 10.5 101670 45
2009-11-19 09:44 51°23.788 2°46.381 8.3 264 10.5 101690 41
2009-11-19 09:45 51°23.934 2°46.237 7.9 257 10.6 101660 45
2009-11-19 09:46 51°24.095 2°46.167 6.9 269 10.6 101680 45
2009-11-19 09:47 51°24.257 2°46.176 8.4 21 10.6 101700 45
2009-11-19 09:48 51°24.393 2°46.3 7.2 24 10.7 101680 42
2009-11-19 09:49 51°24.502 2°46.482 8.1 28 10.8 101670 45
2009-11-19 09:50 51°24.595 2°46.685 6.2 40 10.7 101670 41
2009-11-19 09:51 51°24.701 2°46.871 8.6 33 10.7 101670 40
2009-11-19 09:52 51°24.831 2°47.021 7.1 37 10.7 101680 45
2009-11-19 09:53 51°24.966 2°47.172 5.1 37 10.8 101680 45
2009-11-19 09:54 51°25.097 2°47.324 4.6 37 11.3 101680 45
2009-11-19 09:55 51°25.226 2°47.482 7.8 33 11.6 101680 46
2009-11-19 09:56 51°25.343 2°47.653 7.8 37 11.3 101680 39
2009-11-19 09:57 51°25.431 2°47.873 9.7 38 11.2 101670 44
2009-11-19 09:58 51°25.512 2°48.097 7.2 38 10.9 101670 39
2009-11-19 09:59 51°25.602 2°48.309 7.9 43 11 101670 43
2009-11-19 10:00 51°25.697 2°48.52 9.1 41 10.9 101670 40
2009-11-19 10:01 51°25.788 2°48.733 8.3 31 10.8 101670 45
2009-11-19 10:02 51°25.876 2°48.947 11.2 44 10.7 101670 41
2009-11-19 10:03 51°25.963 2°49.17 8.4 40 10.7 101670 40
2009-11-19 10:04 51°26.045 2°49.397 8.6 36 10.7 101670 44
2009-11-19 10:05 51°26.131 2°49.624 9.8 37 10.7 101670 45
2009-11-19 10:06 51°26.22 2°49.855 6.8 39 10.7 101670 43
2009-11-19 10:07 51°26.305 2°50.081 8.2 39 10.8 101680 45
2009-11-19 10:08 51°26.393 2°50.307 8.1 36 10.8 101680 44
2009-11-19 10:09 51°26.483 2°50.527 8.3 41 10.8 101680 45
2009-11-19 10:10 51°26.568 2°50.754 7.7 34 10.8 101680 42
2009-11-19 10:11 51°26.654 2°50.979 7.2 36 10.9 101670 40
2009-11-19 10:12 51°26.738 2°51.207 8.8 41 10.7 101670 45
2009-11-19 10:13 51°26.824 2°51.433 8.3 36 10.8 101680 44
2009-11-19 10:14 51°26.911 2°51.659 9.8 39 10.7 101680 40
2009-11-19 10:15 51°26.997 2°51.886 8.4 37 10.8 101670 40
2009-11-19 10:16 51°27.083 2°52.122 8.4 37 10.8 101670 45
2009-11-19 10:17 51°27.166 2°52.346 8.3 39 10.8 101670 44
2009-11-19 10:18 51°27.254 2°52.565 6.8 39 10.7 101670 40
2009-11-19 10:19 51°27.339 2°52.785 8.3 41 10.8 101670 44
2009-11-19 10:20 51°27.421 2°53.01 7.9 33 10.9 101660 43
2009-11-19 10:21 51°27.502 2°53.243 6.1 38 10.8 101670 42
2009-11-19 10:22 51°27.585 2°53.467 8.6 38 10.9 101670 42
2009-11-19 10:23 51°27.667 2°53.694 7.9 35 10.8 101680 40
2009-11-19 10:24 51°27.746 2°53.927 7.8 37 10.8 101670 41
2009-11-19 10:25 51°27.826 2°54.152 8.3 35 10.8 101680 40
2009-11-19 10:26 51°27.911 2°54.379 7.2 39 10.8 101670 45
2009-11-19 10:27 51°27.991 2°54.61 8.9 38 10.9 101680 43
2009-11-19 10:28 51°28.067 2°54.844 7.8 33 10.8 101680 43
2009-11-19 10:29 51°28.143 2°55.084 8.2 34 10.8 101670 42
2009-11-19 10:30 51°28.217 2°55.316 8.2 35 10.7 101660 42
2009-11-19 10:31 51°28.295 2°55.552 8.1 33 10.8 101660 42
2009-11-19 10:32 51°28.372 2°55.784 8.7 32 10.8 101660 42
2009-11-19 10:33 51°28.45 2°56.02 7.5 33 10.7 101660 40
2009-11-19 10:34 51°28.526 2°56.258 7.4 33 10.8 101670 42
2009-11-19 10:35 51°28.603 2°56.49 6.9 37 10.8 101680 41
2009-11-19 10:36 51°28.682 2°56.729 7.6 36 10.7 101670 42
2009-11-19 10:37 51°28.761 2°56.967 6.9 34 10.8 101670 44
2009-11-19 10:38 51°28.839 2°57.208 8.2 35 10.8 101680 43
2009-11-19 10:39 51°28.916 2°57.445 8.1 34 10.8 101670 40
2009-11-19 10:40 51°28.993 2°57.678 7.8 38 10.8 101670 43
2009-11-19 10:41 51°29.084 2°57.903 7 37 10.9 101670 45
2009-11-19 10:42 51°29.174 2°58.13 5.9 30 10.9 101670 46
2009-11-19 10:43 51°29.262 2°58.36 6.7 33 10.9 101660 41
2009-11-19 10:44 51°29.351 2°58.584 7.8 35 10.9 101670 46
2009-11-19 10:45 51°29.441 2°58.807 8.1 38 10.8 101670 40
2009-11-19 10:46 51°29.53 2°59.035 8.7 31 10.8 101660 45
2009-11-19 10:47 51°29.617 2°59.267 9.1 40 10.9 101660 40
2009-11-19 10:48 51°29.706 2°59.494 9.4 40 10.9 101650 41
2009-11-19 10:49 51°29.793 2°59.723 9.3 40 10.8 101640 42
2009-11-19 10:50 51°29.882 2°59.949 8.1 36 10.8 101650 42
2009-11-19 10:51 51°29.967 3°0.18 7.7 41 10.8 101640 39
2009-11-19 10:52 51°30.053 3°0.403 8.7 37 10.8 101650 40
2009-11-19 10:53 51°30.141 3°0.634 8.4 35 10.9 101640 44
2009-11-19 10:54 51°30.231 3°0.865 7.4 36 10.9 101640 40
2009-11-19 10:55 51°30.319 3°1.092 10.3 37 10.9 101640 41
2009-11-19 10:56 51°30.408 3°1.323 8 27 10.8 101650 40
2009-11-19 10:57 51°30.494 3°1.551 8.6 38 10.9 101640 40
2009-11-19 10:58 51°30.58 3°1.781 6.6 32 11 101640 40
2009-11-19 10:59 51°30.667 3°2.011 8.1 35 11 101640 40
2009-11-19 11:00 51°30.752 3°2.241 7.9 37 11 101640 43
2009-11-19 11:01 51°30.84 3°2.47 7.2 39 11 101630 45
2009-11-19 11:02 51°30.93 3°2.698 8.1 33 11 101640 41
2009-11-19 11:03 51°31.019 3°2.929 7.5 38 11 101640 41
2009-11-19 11:04 51°31.11 3°3.157 11.3 32 11 101630 44
2009-11-19 11:05 51°31.196 3°3.388 8 39 11 101620 40
2009-11-19 11:06 51°31.286 3°3.618 9.5 33 11 101640 42
2009-11-19 11:07 51°31.371 3°3.851 7.2 29 10.9 101630 44
2009-11-19 11:08 51°31.458 3°4.083 8.2 35 11 101620 40
2009-11-19 11:09 51°31.549 3°4.315 9.1 40 10.9 101620 41
2009-11-19 11:10 51°31.66 3°4.499 6.2 28 10.9 101630 45
2009-11-19 11:11 51°31.826 3°4.529 8.6 21 10.9 101650 43
2009-11-19 11:12 51°31.994 3°4.472 5.8 268 11 101640 43
2009-11-19 11:13 51°32.164 3°4.406 7.6 33 11 101640 42
2009-11-19 11:14 51°32.331 3°4.326 5.7 264 11.1 101630 40
2009-11-19 11:15 51°32.492 3°4.219 11.5 259 11.1 101630 45
2009-11-19 11:16 51°32.631 3°4.058 10.8 260 11 101620 44
2009-11-19 11:17 51°32.766 3°3.883 14.5 261 11 101620 40
2009-11-19 11:18 51°32.901 3°3.709 14.5 259 11.1 101620 42
2009-11-19 11:19 51°33.03 3°3.534 15.2 258 11.1 101630 44
2009-11-19 11:20 51°33.133 3°3.337 14.6 25 11.1 101590 42
2009-11-19 11:21 51°33.139 3°3.091 15.1 22 11.2 101520 44
2009-11-19 11:22 51°33.052 3°2.881 20.5 317 11.2 101520 42
2009-11-19 11:23 51°32.973 3°2.669 16.4 23 11.1 101570 43
2009-11-19 11:24 51°32.9 3°2.441 17.7 318 11.2 101510 43
2009-11-19 11:25 51°32.828 3°2.214 20 25 11.2 101490 43
2009-11-19 11:26 51°32.753 3°1.982 19.7 23 11.2 101500 43
2009-11-19 11:27 51°32.678 3°1.749 17.4 22 11.3 101550 43
2009-11-19 11:28 51°32.605 3°1.52 18.2 23 11.2 101500 43
2009-11-19 11:29 51°32.497 3°1.335 19.1 325 11.3 101530 42
2009-11-19 11:30 51°32.355 3°1.195 16.5 327 11.3 101510 43
2009-11-19 11:31 51°32.208 3°1.064 19.7 329 11.3 101530 43
2009-11-19 11:32 51°32.049 3°0.953 20 330 11.3 101530 42
2009-11-19 11:33 51°31.89 3°0.854 17.6 331 11.3 101560 42
2009-11-19 11:34 51°31.73 3°0.755 17.3 329 11.3 101570 42
2009-11-19 11:35 51°31.573 3°0.662 17.6 332 11.3 101550 42
2009-11-19 11:36 51°31.418 3°0.575 18 332 11.3 101560 42
2009-11-19 11:37 51°31.266 3°0.49 16.3 333 11.3 101560 42
2009-11-19 11:38 51°31.109 3°0.399 16.8 333 11.4 101570 43
2009-11-19 11:39 51°30.95 3°0.308 19.1 331 11.3 101530 42
2009-11-19 11:40 51°30.799 3°0.223 19.8 333 11.3 101560 42
2009-11-19 11:41 51°30.644 3°0.138 16 331 11.3 101570 43
2009-11-19 11:42 51°30.491 3°0.051 19.8 331 11.3 101540 42
2009-11-19 11:43 51°30.333 2°59.959 18.3 335 11.3 101550 42
2009-11-19 11:44 51°30.18 2°59.882 17.2 331 11.3 101540 43
2009-11-19 11:45 51°30.028 2°59.793 17.7 332 11.4 101560 43
2009-11-19 11:46 51°29.87 2°59.706 18.1 329 11.4 101550 43
2009-11-19 11:47 51°29.708 2°59.617 15 333 11.5 101570 43
2009-11-19 11:48 51°29.558 2°59.531 18.5 332 11.6 101570 42
2009-11-19 11:49 51°29.398 2°59.44 20.2 330 11.5 101520 42
2009-11-19 11:50 51°29.245 2°59.356 18.5 332 11.4 101510 44
2009-11-19 11:51 51°29.093 2°59.268 17.4 331 11.4 101530 42
2009-11-19 11:52 51°28.941 2°59.183 17.9 332 11.5 101530 44
2009-11-19 11:53 51°28.79 2°59.095 15.8 329 11.5 101530 43
2009-11-19 11:54 51°28.636 2°59.005 17.9 331 11.5 101530 44
2009-11-19 11:55 51°28.479 2°58.919 17.7 331 11.5 101510 43
2009-11-19 11:56 51°28.324 2°58.826 16.8 331 11.4 101520 42
2009-11-19 11:57 51°28.169 2°58.74 16.9 331 11.5 101490 42
2009-11-19 11:58 51°28.014 2°58.656 16.2 330 11.5 101530 43
2009-11-19 11:59 51°27.86 2°58.576 17.1 332 11.6 101520 42
2009-11-19 12:00 51°27.705 2°58.493 19.5 331 11.7 101500 44
2009-11-19 12:01 51°27.547 2°58.412 18.1 329 11.6 101500 43
2009-11-19 12:02 51°27.402 2°58.343 16.8 330 11.6 101510 42
2009-11-19 12:03 51°27.246 2°58.263 20.8 332 11.6 101480 43
2009-11-19 12:04 51°27.091 2°58.184 19.2 331 11.7 101520 43
2009-11-19 12:05 51°26.934 2°58.108 17.5 329 11.7 101510 42
2009-11-19 12:06 51°26.783 2°58.034 17.3 329 11.7 101510 42
2009-11-19 12:07 51°26.631 2°57.965 18.7 329 11.7 101510 43
2009-11-19 12:08 51°26.484 2°57.897 15.3 330 11.8 101510 44
2009-11-19 12:09 51°26.334 2°57.829 16.4 330 11.8 101480 43
2009-11-19 12:10 51°26.184 2°57.764 16.2 330 11.8 101510 42
2009-11-19 12:11 51°26.039 2°57.696 14.7 331 11.3 101480 44
2009-11-19 12:12 51°25.89 2°57.628 17.3 328 10.9 101470 45
2009-11-19 12:13 51°25.744 2°57.564 17.2 327 10.7 101490 45
2009-11-19 12:14 51°25.601 2°57.505 18.4 332 10.6 101460 44
2009-11-19 12:15 51°25.46 2°57.441 14.3 328 10.7 101490 45
2009-11-19 12:16 51°25.316 2°57.376 18.3 330 10.7 101470 45
2009-11-19 12:17 51°25.177 2°57.318 13.5 329 10.8 101480 45
2009-11-19 12:18 51°25.041 2°57.261 18.9 327 10.9 101490 43
2009-11-19 12:19 51°24.896 2°57.2 15.5 330 11.1 101500 43
2009-11-19 12:20 51°24.751 2°57.134 19.1 330 11.3 101510 43
2009-11-19 12:21 51°24.605 2°57.072 19 328 11.3 101520 44
2009-11-19 12:22 51°24.459 2°57.012 16.7 331 11.4 101490 43
2009-11-19 12:23 51°24.313 2°56.953 18.1 330 11.5 101470 42
2009-11-19 12:24 51°24.166 2°56.889 16.2 329 11.6 101470 43
2009-11-19 12:25 51°24.019 2°56.824 20 329 11.6 101470 44
2009-11-19 12:26 51°23.876 2°56.76 17.8 329 11.7 101460 44
2009-11-19 12:27 51°23.735 2°56.697 16.3 328 11.7 101450 42
2009-11-19 12:28 51°23.61 2°56.647 18.9 328 11.8 101470 43
2009-11-19 12:29 51°23.569 2°56.655 14.8 328 11.7 101480 42
2009-11-19 12:30 51°23.542 2°56.676 16.2 329 11.8 101490 43
2009-11-19 12:31 51°23.433 2°56.643 16.2 328 11.8 101430 43
2009-11-19 12:32 51°23.29 2°56.58 19.8 328 11.9 101450 42
2009-11-19 12:33 51°23.144 2°56.519 18.1 330 11.9 101420 43
2009-11-19 12:34 51°22.995 2°56.454 19 331 11.9 101450 44
2009-11-19 12:35 51°22.85 2°56.393 19 329 11.9 101460 42
2009-11-19 12:36 51°22.705 2°56.333 18.2 329 12 101480 44
2009-11-19 12:37 51°22.56 2°56.273 17.8 330 12 101470 42
2009-11-19 12:38 51°22.417 2°56.209 21.6 326 12 101460 43
2009-11-19 12:39 51°22.276 2°56.148 18.3 327 12 101490 44
2009-11-19 12:40 51°22.134 2°56.09 21.9 327 12.1 101480 43
2009-11-19 12:41 51°21.994 2°56.029 19 325 12.1 101500 43
2009-11-19 12:42 51°21.879 2°55.91 17.9 320 12.2 101470 43
2009-11-19 12:43 51°21.77 2°55.763 17.9 321 12.2 101450 44
2009-11-19 12:44 51°21.656 2°55.632 17 321 12.2 101470 43
2009-11-19 12:45 51°21.536 2°55.507 17.4 323 12.1 101480 42
2009-11-19 12:46 51°21.415 2°55.389 17 324 12.1 101480 43
2009-11-19 12:47 51°21.292 2°55.273 16.3 324 12.1 101470 43
2009-11-19 12:48 51°21.173 2°55.159 19.2 323 12.2 101510 44
2009-11-19 12:49 51°21.051 2°55.045 16.2 324 12.1 101500 43
2009-11-19 12:50 51°20.932 2°54.931 17.2 323 12.1 101490 43
2009-11-19 12:51 51°20.81 2°54.811 16.6 323 12.1 101480 43
2009-11-19 12:52 51°20.688 2°54.694 15.5 324 12.2 101500 42
2009-11-19 12:53 51°20.571 2°54.581 17.4 321 12.2 101480 45
2009-11-19 12:54 51°20.451 2°54.465 17.3 323 12.2 101490 43
2009-11-19 12:55 51°20.331 2°54.34 19 324 12.2 101480 44
2009-11-19 12:56 51°20.211 2°54.221 15.1 322 12.3 101500 42
2009-11-19 12:57 51°20.088 2°54.102 18.5 325 12.3 101510 42
2009-11-19 12:58 51°19.966 2°53.982 16.3 326 12.3 101510 43
2009-11-19 12:59 51°19.844 2°53.862 17.8 323 12.3 101510 43
2009-11-19 13:00 51°19.724 2°53.742 17.6 325 12.3 101500 42
2009-11-19 13:01 51°19.604 2°53.621 16.7 320 12.4 101510 44
2009-11-19 13:02 51°19.483 2°53.501 14.6 325 12.4 101490 43
2009-11-19 13:03 51°19.363 2°53.382 15.6 324 12.4 101500 44
2009-11-19 13:04 51°19.242 2°53.259 13 323 12.4 101500 44
2009-11-19 13:05 51°19.122 2°53.134 16.3 323 12.4 101480 42
2009-11-19 13:06 51°19.002 2°53.011 16.9 323 12.5 101480 44
2009-11-19 13:07 51°18.879 2°52.894 16.8 324 12.5 101500 43
2009-11-19 13:08 51°18.746 2°52.796 17.1 324 12.5 101500 42
2009-11-19 13:09 51°18.608 2°52.711 16.1 326 12.5 101520 44
2009-11-19 13:10 51°18.472 2°52.624 14.1 322 12.5 101510 44
2009-11-19 13:11 51°18.337 2°52.537 14.2 327 12.4 101510 45
2009-11-19 13:12 51°18.192 2°52.472 15.7 327 12.4 101510 44
2009-11-19 13:13 51°18.045 2°52.437 17 329 12.4 101520 43
2009-11-19 13:14 51°17.892 2°52.411 15.4 329 12.3 101520 42
2009-11-19 13:15 51°17.739 2°52.394 14.7 332 12.4 101470 44
2009-11-19 13:16 51°17.583 2°52.431 15.9 333 12.3 101500 43
2009-11-19 13:17 51°17.425 2°52.482 15.4 335 12.4 101510 44
2009-11-19 13:18 51°17.267 2°52.533 15.2 335 12.4 101500 45
2009-11-19 13:19 51°17.108 2°52.584 14.8 335 12.4 101510 43
2009-11-19 13:20 51°16.949 2°52.629 15.5 334 12.4 101520 44
2009-11-19 13:21 51°16.789 2°52.673 15.6 335 12.4 101490 44
2009-11-19 13:22 51°16.629 2°52.731 15.8 336 12.5 101530 44
2009-11-19 13:23 51°16.468 2°52.805 15.3 333 12.5 101510 44
2009-11-19 13:24 51°16.307 2°52.891 16.5 336 12.5 101500 42
2009-11-19 13:25 51°16.153 2°52.989 15.6 337 12.6 101510 44
2009-11-19 13:26 51°15.998 2°53.088 14.3 337 12.5 101500 42
2009-11-19 13:27 51°15.841 2°53.185 13.8 336 12.6 101520 44
2009-11-19 13:28 51°15.683 2°53.284 14.3 336 12.6 101520 44
2009-11-19 13:29 51°15.527 2°53.398 15.5 340 12.7 101510 43
2009-11-19 13:30 51°15.377 2°53.526 15.5 339 12.7 101500 43
2009-11-19 13:31 51°15.231 2°53.675 13.9 344 12.7 101510 44
2009-11-19 13:32 51°15.086 2°53.824 15.5 346 12.7 101510 42
2009-11-19 13:33 51°14.937 2°53.972 15 345 12.7 101520 44
2009-11-19 13:34 51°14.811 2°54.156 12.9 349 12.7 101510 41
2009-11-19 13:35 51°14.703 2°54.391 15.2 351 12.7 101500 44
2009-11-19 13:36 51°14.586 2°54.619 13.6 346 12.8 101510 44
2009-11-19 13:37 51°14.467 2°54.843 10.7 344 12.8 101500 44
2009-11-19 13:38 51°14.352 2°55.08 7.5 346 12.8 101520 41
2009-11-19 13:39 51°14.238 2°55.284 8.5 348 12.9 101530 41
2009-11-19 13:40 51°14.119 2°55.419 10 339 13 101530 42
2009-11-19 13:41 51°14 2°55.507 9.2 338 13 101520 44
2009-11-19 13:42 51°13.905 2°55.575 6.9 339 13 101530 44
2009-11-19 13:43 51°13.82 2°55.642 7.5 346 13 101530 41
2009-11-19 13:44 51°13.748 2°55.734 10.7 352 13 101540 45
2009-11-19 13:45 51°13.698 2°55.837 8 354 13 101540 44
2009-11-19 13:46 51°13.669 2°55.928 3.8 343 13 101540 43